OPS 4682 DEB, 39609

Orbit data source: Space-Track

OPS 4682 DEB, 39609 is space debris in LEO originally from a launch on Sat, 03 Apr 1965 UTC launched from the Air Force Western Test Range (AFWTR). Debris objects in space refer to the collection of defunct objects orbiting the Earth. Examples of debris include non-operational satellites, rocket bodies, and fragments generated from explosions, collisions, or faulty payload assembly.

Loading next visibility...
Identifier
39609, 1965-027FS
Orbit
LEO
Country
Flag of USUS
Related business
Manufacturer
Unknown
Mission
Spacecraft
Bus & Motor
Unknown
Mass
Unknown
Launch date (UTC)
1965-04-03 (61 years ago)
Launch vehicle
Unknown
Launch site
Air Force Western Test Range (AFWTR)
Object type
Payload
Rocket body
Debris
Shape & HBR
Unknown shape, 0.1 m
Radar Cross Section
Small (<0.1 m²)

Expand to show TLE details & history
Last TLE update: 5 days ago

TLE from 5 days ago
0 OPS 4682 DEB
1 39609U 65027FS  25336.56716642  .00000480  00000-0  16139-2 0  9997
2 39609  90.2486   9.9698 0027236 207.1444 308.5103 12.98057037570791
Epoch: 2025-12-02T13:36Z
TLE epoch observation values (Epoch: 2025-12-02T13:36:43.178Z)
Latitude
24.61324°
Longitude
-85.74726°
Altitude
1,259.744 km
Speed
7.234 km/s
True Right ascension
12h 40m 19s
True Declination
24° 29' 31"
Sunlit
Object was in daylight at epoch
Visualization orbit readout
Latitude
Unknown
Longitude
Unknown
Altitude
Unknown
Speed
Unknown
Apparent Right ascension
Unknown
Apparent Declination
Unknown
Sunlit
N/A
Visualization observer readout
Local Sidereal Time
12:44:35
Azimuth
Unknown
Elevation
Unknown
Doppler factor
Unknown
Orbital elements
Apogee altitude
1,287.66 km
Perigee altitude
1,246.017 km
Semi-major axis
7,644.976 km
Eccentricity
0.00272
Inclination
90.2486°
RAAN
9.9698°
Arg. of periapsis
207.1444°
True anomaly
308.26556°
Mean anomaly
308.5103°
Eccentric anomaly
308.38798°
Mean motion
3.24698 °/min
Orbital period
110.87 mins
BSTAR
0.0016139
Loading maneuver chart data...
Computing Atmospheric mass density...
Loading historical data...
Loading historical data...
Loading historical data...
Loading historical data...
Loading historical data...
Loading historical data...
Loading historical data...

Documentation

Showing up to 5 results
|